Year,Month,Day,Hour,Minute,Value (Times are PST for temperature in C)
2018,05,21,00,00,12.30
2018,05,21,00,01,12.30
2018,05,21,00,02,12.30
2018,05,21,00,03,12.30
2018,05,21,00,04,12.30
2018,05,21,00,05,12.30
2018,05,21,00,06,12.30
2018,05,21,00,07,12.30
2018,05,21,00,08,12.30
2018,05,21,00,09,12.30
2018,05,21,00,10,12.30
2018,05,21,00,11,12.30
2018,05,21,00,12,12.30
2018,05,21,00,13,12.20
2018,05,21,00,14,12.20
2018,05,21,00,15,12.20
2018,05,21,00,16,12.20
2018,05,21,00,17,12.20
2018,05,21,00,18,12.20
2018,05,21,00,19,12.20
2018,05,21,00,20,12.20
2018,05,21,00,21,12.20
2018,05,21,00,22,12.20
2018,05,21,00,23,12.10
2018,05,21,00,24,12.10
2018,05,21,00,25,12.10
2018,05,21,00,26,12.10
2018,05,21,00,27,12.10
2018,05,21,00,28,12.10
2018,05,21,00,29,12.10
2018,05,21,00,30,12.10
2018,05,21,00,31,12.10
2018,05,21,00,32,12.10
2018,05,21,00,33,12.10
2018,05,21,00,34,12.10
2018,05,21,00,35,12.10
2018,05,21,00,36,12.10
2018,05,21,00,37,12.00
2018,05,21,00,38,12.00
2018,05,21,00,39,12.00
2018,05,21,00,40,12.00
2018,05,21,00,41,12.00
2018,05,21,00,42,12.00
2018,05,21,00,43,12.00
2018,05,21,00,44,12.00
2018,05,21,00,45,12.00
2018,05,21,00,46,12.00
2018,05,21,00,47,12.00
2018,05,21,00,48,12.00
2018,05,21,00,49,12.00
2018,05,21,00,50,12.00
2018,05,21,00,51,12.00
2018,05,21,00,52,11.90
2018,05,21,00,53,11.90
2018,05,21,00,54,11.90
2018,05,21,00,55,11.90
2018,05,21,00,56,11.90
2018,05,21,00,57,11.90
2018,05,21,00,58,11.90
2018,05,21,00,59,11.90
2018,05,21,01,00,11.90
2018,05,21,01,01,11.90
2018,05,21,01,02,11.90
2018,05,21,01,03,11.90
2018,05,21,01,04,11.90
2018,05,21,01,05,11.90
2018,05,21,01,06,11.90
2018,05,21,01,07,11.80
2018,05,21,01,08,11.80
2018,05,21,01,09,11.80
2018,05,21,01,10,11.80
2018,05,21,01,11,11.80
2018,05,21,01,12,11.80
2018,05,21,01,13,11.80
2018,05,21,01,14,11.80
2018,05,21,01,15,11.80
2018,05,21,01,16,11.80
2018,05,21,01,17,11.80
2018,05,21,01,18,11.80
2018,05,21,01,19,11.80
2018,05,21,01,20,11.80
2018,05,21,01,21,11.80
2018,05,21,01,22,11.80
2018,05,21,01,23,11.80
2018,05,21,01,24,11.80
2018,05,21,01,25,11.80
2018,05,21,01,26,11.80
2018,05,21,01,27,11.80
2018,05,21,01,28,11.80
2018,05,21,01,29,11.80
2018,05,21,01,30,11.80
2018,05,21,01,31,11.80
2018,05,21,01,32,11.80
2018,05,21,01,33,11.80
2018,05,21,01,34,11.80
2018,05,21,01,35,11.80
2018,05,21,01,36,11.80
2018,05,21,01,37,11.80
2018,05,21,01,38,11.90
2018,05,21,01,39,11.80
2018,05,21,01,40,11.80
2018,05,21,01,41,11.80
2018,05,21,01,42,11.80
2018,05,21,01,43,11.80
2018,05,21,01,44,11.80
2018,05,21,01,45,11.80
2018,05,21,01,46,11.80
2018,05,21,01,47,11.80
2018,05,21,01,48,11.70
2018,05,21,01,49,11.70
2018,05,21,01,50,11.70
2018,05,21,01,51,11.70
2018,05,21,01,52,11.70
2018,05,21,01,53,11.70
2018,05,21,01,54,11.60
2018,05,21,01,55,11.60
2018,05,21,01,56,11.60
2018,05,21,01,57,11.60
2018,05,21,01,58,11.60
2018,05,21,01,59,11.60
2018,05,21,02,00,11.50
2018,05,21,02,01,11.50
2018,05,21,02,02,11.50
2018,05,21,02,03,11.40
2018,05,21,02,04,11.40
2018,05,21,02,05,11.40
2018,05,21,02,06,11.40
2018,05,21,02,07,11.40
2018,05,21,02,08,11.40
2018,05,21,02,09,11.40
2018,05,21,02,10,11.40
2018,05,21,02,11,11.40
2018,05,21,02,12,11.40
2018,05,21,02,13,11.40
2018,05,21,02,14,11.40
2018,05,21,02,15,11.40
2018,05,21,02,16,11.40
2018,05,21,02,17,11.30
2018,05,21,02,18,11.30
2018,05,21,02,19,11.30
2018,05,21,02,20,11.30
2018,05,21,02,21,11.30
2018,05,21,02,22,11.30
2018,05,21,02,23,11.30
2018,05,21,02,24,11.30
2018,05,21,02,25,11.30
2018,05,21,02,26,11.30
2018,05,21,02,27,11.30
2018,05,21,02,28,11.30
2018,05,21,02,29,11.20
2018,05,21,02,30,11.20
2018,05,21,02,31,11.20
2018,05,21,02,32,11.20
2018,05,21,02,33,11.20
2018,05,21,02,34,11.20
2018,05,21,02,35,11.20
2018,05,21,02,36,11.20
2018,05,21,02,37,11.20
2018,05,21,02,38,11.20
2018,05,21,02,39,11.20
2018,05,21,02,40,11.20
2018,05,21,02,41,11.20
2018,05,21,02,42,11.20
2018,05,21,02,43,11.20
2018,05,21,02,44,11.20
2018,05,21,02,45,11.20
2018,05,21,02,46,11.20
2018,05,21,02,47,11.20
2018,05,21,02,48,11.20
2018,05,21,02,49,11.20
2018,05,21,02,50,11.10
2018,05,21,02,51,11.10
2018,05,21,02,52,11.10
2018,05,21,02,53,11.10
2018,05,21,02,54,11.10
2018,05,21,02,55,11.10
2018,05,21,02,56,11.10
2018,05,21,02,57,11.10
2018,05,21,02,58,11.20
2018,05,21,02,59,11.20
2018,05,21,03,00,11.20
2018,05,21,03,01,11.10
2018,05,21,03,02,11.20
2018,05,21,03,03,11.20
2018,05,21,03,04,11.20
2018,05,21,03,05,11.20
2018,05,21,03,06,11.20
2018,05,21,03,07,11.20
2018,05,21,03,08,11.20
2018,05,21,03,09,11.20
2018,05,21,03,10,11.20
2018,05,21,03,11,11.20
2018,05,21,03,12,11.20
2018,05,21,03,13,11.20
2018,05,21,03,14,11.20
2018,05,21,03,15,11.20
2018,05,21,03,16,11.20
2018,05,21,03,17,11.30
2018,05,21,03,18,11.30
2018,05,21,03,19,11.30
2018,05,21,03,20,11.30
2018,05,21,03,21,11.30
2018,05,21,03,22,11.30
2018,05,21,03,23,11.30
2018,05,21,03,24,11.30
2018,05,21,03,25,11.30
2018,05,21,03,26,11.30
2018,05,21,03,27,11.30
2018,05,21,03,28,11.40
2018,05,21,03,29,11.40
2018,05,21,03,30,11.40
2018,05,21,03,31,11.40
2018,05,21,03,32,11.40
2018,05,21,03,33,11.50
2018,05,21,03,34,11.50
2018,05,21,03,35,11.50
2018,05,21,03,36,11.50
2018,05,21,03,37,11.50
2018,05,21,03,38,11.60
2018,05,21,03,39,11.60
2018,05,21,03,40,11.60
2018,05,21,03,41,11.60
2018,05,21,03,42,11.60
2018,05,21,03,43,11.60
2018,05,21,03,44,11.60
2018,05,21,03,45,11.60
2018,05,21,03,46,11.60
2018,05,21,03,47,11.60
2018,05,21,03,48,11.60
2018,05,21,03,49,11.60
2018,05,21,03,50,11.60
2018,05,21,03,51,11.60
2018,05,21,03,52,11.60
2018,05,21,03,53,11.60
2018,05,21,03,54,11.60
2018,05,21,03,55,11.60
2018,05,21,03,56,11.60
2018,05,21,03,57,11.70
2018,05,21,03,58,11.70
2018,05,21,03,59,11.70
2018,05,21,04,00,11.70
2018,05,21,04,01,11.70
2018,05,21,04,02,11.70
2018,05,21,04,03,11.70
2018,05,21,04,04,11.70
2018,05,21,04,05,11.70
2018,05,21,04,06,11.70
2018,05,21,04,07,11.70
2018,05,21,04,08,11.70
2018,05,21,04,09,11.70
2018,05,21,04,10,11.80
2018,05,21,04,11,11.80
2018,05,21,04,12,11.80
2018,05,21,04,13,11.80
2018,05,21,04,14,11.80
2018,05,21,04,15,11.80
2018,05,21,04,16,11.80
2018,05,21,04,17,11.80
2018,05,21,04,18,11.80
2018,05,21,04,19,11.80
2018,05,21,04,20,11.80
2018,05,21,04,21,11.80
2018,05,21,04,22,11.80
2018,05,21,04,23,11.90
2018,05,21,04,24,11.90
2018,05,21,04,25,11.90
2018,05,21,04,26,11.90
2018,05,21,04,27,11.90
2018,05,21,04,28,11.90
2018,05,21,04,29,11.90
2018,05,21,04,30,11.90
2018,05,21,04,31,11.90
2018,05,21,04,32,11.90
2018,05,21,04,33,11.90
2018,05,21,04,34,12.00
2018,05,21,04,35,12.00
2018,05,21,04,36,12.00
2018,05,21,04,37,12.00
2018,05,21,04,38,12.00
2018,05,21,04,39,12.00
2018,05,21,04,40,12.10
2018,05,21,04,41,12.10
2018,05,21,04,42,12.10
2018,05,21,04,43,12.10
2018,05,21,04,44,12.10
2018,05,21,04,45,12.10
2018,05,21,04,46,12.10
2018,05,21,04,47,12.10
2018,05,21,04,48,12.10
2018,05,21,04,49,12.10
2018,05,21,04,50,12.10
2018,05,21,04,51,12.10
2018,05,21,04,52,12.20
2018,05,21,04,53,12.20
2018,05,21,04,54,12.20
2018,05,21,04,55,12.20
2018,05,21,04,56,12.20
2018,05,21,04,57,12.20
2018,05,21,04,58,12.20
2018,05,21,04,59,12.20
2018,05,21,05,00,12.20
2018,05,21,05,01,12.20
2018,05,21,05,02,12.20
2018,05,21,05,03,12.20
2018,05,21,05,04,12.20
2018,05,21,05,05,12.20
2018,05,21,05,06,12.20
2018,05,21,05,07,12.20
2018,05,21,05,08,12.20
2018,05,21,05,09,12.20
2018,05,21,05,10,12.20
2018,05,21,05,11,12.20
2018,05,21,05,12,12.20
2018,05,21,05,13,12.20
2018,05,21,05,14,12.20
2018,05,21,05,15,12.20
2018,05,21,05,16,12.20
2018,05,21,05,17,12.20
2018,05,21,05,18,12.20
2018,05,21,05,19,12.20
2018,05,21,05,20,12.20
2018,05,21,05,21,12.20
2018,05,21,05,22,12.20
2018,05,21,05,23,12.20
2018,05,21,05,24,12.20
2018,05,21,05,25,12.30
2018,05,21,05,26,12.30
2018,05,21,05,27,12.30
2018,05,21,05,28,12.30
2018,05,21,05,29,12.30
2018,05,21,05,30,12.30
2018,05,21,05,31,12.30
2018,05,21,05,32,12.30
2018,05,21,05,33,12.30
2018,05,21,05,34,12.30
2018,05,21,05,35,12.30
2018,05,21,05,36,12.30
2018,05,21,05,37,12.30
2018,05,21,05,38,12.30
2018,05,21,05,39,12.30
2018,05,21,05,40,12.30
2018,05,21,05,41,12.30
2018,05,21,05,42,12.30
2018,05,21,05,43,12.30
2018,05,21,05,44,12.30
2018,05,21,05,45,12.30
2018,05,21,05,46,12.30
2018,05,21,05,47,12.30
2018,05,21,05,48,12.30
2018,05,21,05,49,12.40
2018,05,21,05,50,12.40
2018,05,21,05,51,12.40
2018,05,21,05,52,12.40
2018,05,21,05,53,12.40
2018,05,21,05,54,12.40
2018,05,21,05,55,12.40
2018,05,21,05,56,12.40
2018,05,21,05,57,12.40
2018,05,21,05,58,12.40
2018,05,21,05,59,12.40
2018,05,21,06,00,12.40
2018,05,21,06,01,12.40
2018,05,21,06,02,12.40
2018,05,21,06,03,12.40
2018,05,21,06,04,12.40
2018,05,21,06,05,12.40
2018,05,21,06,06,12.40
2018,05,21,06,07,12.40
2018,05,21,06,08,12.40
2018,05,21,06,09,12.40
2018,05,21,06,10,12.40
2018,05,21,11,32,19.90
2018,05,21,11,33,19.90
2018,05,21,11,34,20.00
2018,05,21,11,35,20.00
2018,05,21,11,36,20.10
2018,05,21,11,37,20.10
2018,05,21,11,38,20.10
2018,05,21,11,39,20.00
2018,05,21,11,40,20.00
2018,05,21,11,41,20.00
2018,05,21,11,42,20.10
2018,05,21,11,43,20.10
2018,05,21,11,44,20.10
2018,05,21,11,45,20.10
2018,05,21,11,46,20.20
2018,05,21,11,47,20.10
2018,05,21,11,48,20.10
2018,05,21,11,49,20.00
2018,05,21,11,50,20.00
2018,05,21,11,51,20.00
2018,05,21,11,52,20.10
2018,05,21,11,53,20.10
2018,05,21,11,54,20.10
2018,05,21,11,55,20.20
2018,05,21,11,56,20.20
2018,05,21,11,57,20.20
2018,05,21,11,58,20.20
2018,05,21,11,59,20.30
2018,05,21,12,00,20.30
2018,05,21,12,01,20.30
2018,05,21,12,02,20.30
2018,05,21,12,03,20.30
2018,05,21,12,04,20.20
2018,05,21,12,05,20.20
2018,05,21,12,06,20.30
2018,05,21,12,07,20.30
2018,05,21,12,08,20.40
2018,05,21,12,09,20.40
2018,05,21,12,10,20.50
2018,05,21,12,11,20.50
2018,05,21,12,12,20.50
2018,05,21,12,13,20.50
2018,05,21,12,14,20.50
2018,05,21,12,15,20.60
2018,05,21,12,16,20.60
2018,05,21,12,17,20.70
2018,05,21,12,18,20.70
2018,05,21,12,19,20.70
2018,05,21,12,20,20.80
2018,05,21,12,21,20.80
2018,05,21,12,22,20.80
2018,05,21,12,23,20.80
2018,05,21,12,24,20.90
2018,05,21,12,25,21.00
2018,05,21,12,26,21.00
2018,05,21,12,27,21.00
2018,05,21,12,28,21.00
2018,05,21,12,29,20.90
2018,05,21,12,30,20.90
2018,05,21,12,31,20.90
2018,05,21,12,32,20.90
2018,05,21,12,33,20.90
2018,05,21,12,34,21.00
2018,05,21,12,35,21.00
2018,05,21,12,36,21.10
2018,05,21,12,37,21.10
2018,05,21,12,38,21.00
2018,05,21,12,39,20.90
2018,05,21,12,40,20.80
2018,05,21,12,41,20.70
2018,05,21,12,42,20.70
2018,05,21,12,43,20.70
2018,05,21,12,44,20.70
2018,05,21,12,45,20.60
2018,05,21,12,46,20.60
2018,05,21,12,47,20.70
2018,05,21,12,48,20.60
2018,05,21,12,49,20.60
2018,05,21,12,50,20.50
2018,05,21,12,51,20.50
2018,05,21,12,52,20.60
2018,05,21,12,53,20.60
2018,05,21,12,54,20.70
2018,05,21,12,55,20.70
2018,05,21,12,56,20.80
2018,05,21,12,57,20.80
2018,05,21,12,58,20.80
2018,05,21,12,59,20.70
2018,05,21,13,00,20.70
2018,05,21,13,01,20.60
2018,05,21,13,02,20.60
2018,05,21,13,03,20.70
2018,05,21,13,04,20.60
2018,05,21,13,05,20.60
2018,05,21,13,06,20.60
2018,05,21,13,07,20.60
2018,05,21,13,08,20.60
2018,05,21,13,09,20.60
2018,05,21,13,10,20.50
2018,05,21,13,11,20.50
2018,05,21,13,12,20.40
2018,05,21,13,13,20.20
2018,05,21,13,14,20.10
2018,05,21,13,15,20.00
2018,05,21,13,16,20.00
2018,05,21,13,17,20.10
2018,05,21,13,18,20.10
2018,05,21,13,19,20.20
2018,05,21,13,20,20.30
2018,05,21,13,21,20.40
2018,05,21,13,22,20.60
2018,05,21,13,23,20.70
2018,05,21,13,24,20.80
2018,05,21,13,25,20.90
2018,05,21,13,26,21.00
2018,05,21,13,27,21.10
2018,05,21,13,28,21.20
2018,05,21,13,29,21.20
2018,05,21,13,30,21.30
2018,05,21,13,31,21.40
2018,05,21,13,32,21.40
2018,05,21,13,33,21.50
2018,05,21,13,34,21.50
2018,05,21,13,35,21.40
2018,05,21,13,36,21.30
2018,05,21,13,37,21.40
2018,05,21,13,38,21.30
2018,05,21,13,39,21.30
2018,05,21,13,40,21.30
2018,05,21,13,41,21.40
2018,05,21,13,42,21.40
2018,05,21,13,43,21.30
2018,05,21,13,44,21.30
2018,05,21,13,45,21.30
2018,05,21,13,46,21.20
2018,05,21,13,47,21.20
2018,05,21,13,48,21.20
2018,05,21,13,49,21.20
2018,05,21,13,50,21.20
2018,05,21,13,51,21.20
2018,05,21,13,52,21.30
2018,05,21,13,53,21.30
2018,05,21,13,54,21.40
2018,05,21,13,55,21.40
2018,05,21,13,56,21.40
2018,05,21,13,57,21.40
2018,05,21,13,58,21.40
2018,05,21,13,59,21.40
2018,05,21,14,00,21.40
2018,05,21,14,01,21.40
2018,05,21,14,02,21.40
2018,05,21,14,03,21.50
2018,05,21,14,04,21.50
2018,05,21,14,05,21.60
2018,05,21,14,06,21.60
2018,05,21,14,07,21.60
2018,05,21,14,08,21.60
2018,05,21,14,09,21.60
2018,05,21,14,10,21.50
2018,05,21,14,11,21.40
2018,05,21,14,12,21.40
2018,05,21,14,13,21.40
2018,05,21,14,14,21.40
2018,05,21,14,15,21.50
2018,05,21,14,16,21.50
2018,05,21,14,17,21.50
2018,05,21,14,18,21.60
2018,05,21,14,19,21.60
2018,05,21,14,20,21.60
2018,05,21,14,21,21.60
2018,05,21,14,22,21.50
2018,05,21,14,23,21.50
2018,05,21,14,24,21.40
2018,05,21,14,25,21.50
2018,05,21,14,26,21.50
2018,05,21,14,27,21.60
2018,05,21,14,28,21.60
2018,05,21,14,29,21.50
2018,05,21,14,30,21.50
2018,05,21,14,31,21.50
2018,05,21,14,32,21.50
2018,05,21,14,33,21.60
2018,05,21,14,34,21.60
2018,05,21,14,35,21.70
2018,05,21,14,36,21.80
2018,05,21,14,37,21.80
2018,05,21,14,38,21.90
2018,05,21,14,39,21.90
2018,05,21,14,40,21.90
2018,05,21,14,41,22.00
2018,05,21,14,42,22.10
2018,05,21,14,43,22.10
2018,05,21,14,44,22.20
2018,05,21,14,45,22.30
2018,05,21,14,46,22.30
2018,05,21,14,47,22.40
2018,05,21,14,48,22.40
2018,05,21,14,49,22.40
2018,05,21,14,50,22.50
2018,05,21,14,51,22.50
2018,05,21,14,52,22.50
2018,05,21,14,53,22.50
2018,05,21,14,54,22.40
2018,05,21,14,55,22.40
2018,05,21,14,56,22.40
2018,05,21,14,57,22.30
2018,05,21,14,58,22.30
2018,05,21,14,59,22.20
2018,05,21,15,00,22.20
2018,05,21,15,01,22.20
2018,05,21,15,02,22.20
2018,05,21,15,03,22.20
2018,05,21,15,04,22.20
2018,05,21,15,05,22.20
2018,05,21,15,06,22.30
2018,05,21,15,07,22.30
2018,05,21,15,08,22.40
2018,05,21,15,09,22.50
2018,05,21,15,10,22.60
2018,05,21,15,11,22.60
2018,05,21,15,12,22.70
2018,05,21,15,13,22.80
2018,05,21,15,14,22.80
2018,05,21,15,15,22.80
2018,05,21,15,16,22.80
2018,05,21,15,17,22.80
2018,05,21,15,18,22.80
2018,05,21,15,19,22.80
2018,05,21,15,20,22.90
2018,05,21,15,21,22.90
2018,05,21,15,22,22.90
2018,05,21,15,23,22.90
2018,05,21,15,24,22.90
2018,05,21,15,25,22.80
2018,05,21,15,26,22.80
2018,05,21,15,27,22.70
2018,05,21,15,28,22.70
2018,05,21,15,29,22.80
2018,05,21,15,30,22.80
2018,05,21,15,31,22.90
2018,05,21,15,32,23.00
2018,05,21,15,33,23.10
2018,05,21,15,34,23.10
2018,05,21,15,35,23.20
2018,05,21,15,36,23.30
2018,05,21,15,37,23.40
2018,05,21,15,38,23.50
2018,05,21,15,39,23.60
2018,05,21,15,40,23.80
2018,05,21,15,41,23.80
2018,05,21,15,42,23.80
2018,05,21,15,43,23.70
2018,05,21,15,44,23.70
2018,05,21,15,45,23.60
2018,05,21,15,46,23.60
2018,05,21,15,47,23.50
2018,05,21,15,48,23.50
2018,05,21,15,49,23.50
2018,05,21,15,50,23.50
2018,05,21,15,51,23.40
2018,05,21,15,52,23.40
2018,05,21,15,53,23.30
2018,05,21,15,54,23.30
2018,05,21,15,55,23.30
2018,05,21,15,56,23.20
2018,05,21,15,57,23.20
2018,05,21,15,58,23.10
2018,05,21,15,59,23.10
2018,05,21,16,00,23.10
2018,05,21,16,01,23.10
2018,05,21,16,02,23.10
2018,05,21,16,03,23.10
2018,05,21,16,04,23.20
2018,05,21,16,05,23.20
2018,05,21,16,06,23.10
2018,05,21,16,07,23.10
2018,05,21,16,08,23.20
2018,05,21,16,09,23.20
2018,05,21,16,10,23.20
2018,05,21,16,11,23.20
2018,05,21,16,12,23.20
2018,05,21,16,13,23.20
2018,05,21,16,14,23.20
2018,05,21,16,15,23.30
2018,05,21,16,16,23.30
2018,05,21,16,17,23.30
2018,05,21,16,18,23.40
2018,05,21,16,19,23.40
2018,05,21,16,20,23.40
2018,05,21,16,21,23.30
2018,05,21,16,22,23.20
2018,05,21,16,23,23.20
2018,05,21,16,24,23.10
2018,05,21,16,25,22.90
2018,05,21,16,26,22.80
2018,05,21,16,27,22.70
2018,05,21,16,28,22.60
2018,05,21,16,29,22.60
2018,05,21,16,30,22.50
2018,05,21,16,31,22.50
2018,05,21,16,32,22.40
2018,05,21,16,33,22.40
2018,05,21,16,34,22.40
2018,05,21,16,35,22.40
2018,05,21,16,36,22.40
2018,05,21,16,37,22.30
2018,05,21,16,38,22.30
2018,05,21,16,39,22.30
2018,05,21,16,40,22.30
2018,05,21,16,41,22.30
2018,05,21,16,42,22.30
2018,05,21,16,43,22.30
2018,05,21,16,44,22.30
2018,05,21,16,45,22.30
2018,05,21,16,46,22.20
2018,05,21,16,47,22.20
2018,05,21,16,48,22.20
2018,05,21,16,49,22.10
2018,05,21,16,50,22.10
2018,05,21,16,51,22.10
2018,05,21,16,52,22.10
2018,05,21,16,53,22.10
2018,05,21,16,54,22.10
2018,05,21,16,55,22.10
2018,05,21,16,56,22.10
2018,05,21,16,57,22.10
2018,05,21,16,58,22.20
2018,05,21,16,59,22.20
2018,05,21,17,00,22.20
2018,05,21,17,01,22.20
2018,05,21,17,02,22.20
2018,05,21,17,03,22.30
2018,05,21,17,04,22.30
2018,05,21,17,05,22.30
2018,05,21,17,06,22.40
2018,05,21,17,07,22.40
2018,05,21,17,08,22.40
2018,05,21,17,09,22.30
2018,05,21,17,10,22.30
2018,05,21,17,11,22.30
2018,05,21,17,12,22.20
2018,05,21,17,13,22.10
2018,05,21,17,14,21.90
2018,05,21,17,15,21.80
2018,05,21,17,16,21.70
2018,05,21,17,17,21.60
2018,05,21,17,18,21.50
2018,05,21,17,19,21.40
2018,05,21,17,20,21.40
2018,05,21,17,21,21.40
2018,05,21,17,22,21.30
2018,05,21,17,23,21.30
2018,05,21,17,24,21.20
2018,05,21,17,25,21.20
2018,05,21,17,26,21.20
2018,05,21,17,27,21.20
2018,05,21,17,28,21.20
2018,05,21,17,29,21.20
2018,05,21,17,30,21.30
2018,05,21,17,31,21.30
2018,05,21,17,32,21.30
2018,05,21,17,33,21.40
2018,05,21,17,34,21.40
2018,05,21,17,35,21.40
2018,05,21,17,36,21.40
2018,05,21,17,37,21.40
2018,05,21,17,38,21.40
2018,05,21,17,39,21.40
2018,05,21,17,40,21.40
2018,05,21,17,41,21.40
2018,05,21,17,42,21.40
2018,05,21,17,43,21.40
2018,05,21,17,44,21.40
2018,05,21,17,45,21.40
2018,05,21,17,46,21.40
2018,05,21,17,47,21.40
2018,05,21,17,48,21.40
2018,05,21,17,49,21.40
2018,05,21,17,50,21.40
2018,05,21,17,51,21.50
2018,05,21,17,52,21.50
2018,05,21,17,53,21.50
2018,05,21,17,54,21.50
2018,05,21,17,55,21.60
2018,05,21,17,56,21.60
2018,05,21,17,57,21.60
2018,05,21,17,58,21.60
2018,05,21,17,59,21.60
2018,05,21,18,00,21.70
2018,05,21,18,01,21.70
2018,05,21,18,02,21.70
2018,05,21,18,03,21.70
2018,05,21,18,04,21.70
2018,05,21,18,05,21.60
2018,05,21,18,06,21.60
2018,05,21,18,07,21.60
2018,05,21,18,08,21.60
2018,05,21,18,09,21.60
2018,05,21,18,10,21.70
2018,05,21,18,11,21.70
2018,05,21,18,12,21.70
2018,05,21,18,13,21.70
2018,05,21,18,14,21.80
2018,05,21,18,15,21.80
2018,05,21,18,16,21.80
2018,05,21,18,17,21.80
2018,05,21,18,18,21.80
2018,05,21,18,19,21.90
2018,05,21,18,20,21.90
2018,05,21,18,21,21.90
2018,05,21,18,22,21.90
2018,05,21,18,23,21.90
2018,05,21,18,24,22.00
2018,05,21,18,25,22.00
2018,05,21,18,26,22.00
2018,05,21,18,27,22.00
2018,05,21,18,28,22.00
2018,05,21,18,29,22.00
2018,05,21,18,30,22.00
2018,05,21,18,31,22.00
2018,05,21,18,32,22.10
2018,05,21,18,33,22.10
2018,05,21,18,34,22.10
2018,05,21,18,35,22.10
2018,05,21,18,36,22.20
2018,05,21,18,37,22.20
2018,05,21,18,38,22.20
2018,05,21,18,39,22.30
2018,05,21,18,40,22.30
2018,05,21,18,41,22.30
2018,05,21,18,42,22.30
2018,05,21,18,43,22.20
2018,05,21,18,44,22.10
2018,05,21,18,45,22.10
2018,05,21,18,46,22.00
2018,05,21,18,47,22.00
2018,05,21,18,48,21.90
2018,05,21,18,49,21.90
2018,05,21,18,50,21.80
2018,05,21,18,51,21.80
2018,05,21,18,52,21.80
2018,05,21,18,53,21.70
2018,05,21,18,54,21.60
2018,05,21,18,55,21.60
2018,05,21,18,56,21.50
2018,05,21,18,57,21.50
2018,05,21,18,58,21.40
2018,05,21,18,59,21.40
2018,05,21,19,00,21.30
2018,05,21,19,01,21.30
2018,05,21,19,02,21.30
2018,05,21,19,03,21.20
2018,05,21,19,04,21.20
2018,05,21,19,05,21.20
2018,05,21,19,06,21.20
2018,05,21,19,07,21.10
2018,05,21,19,08,21.10
2018,05,21,19,09,21.10
2018,05,21,19,10,21.00
2018,05,21,19,11,21.00
2018,05,21,19,12,20.90
2018,05,21,19,13,20.90
2018,05,21,19,14,20.80
2018,05,21,19,15,20.70
2018,05,21,19,16,20.60
2018,05,21,19,17,20.50
2018,05,21,19,18,20.50
2018,05,21,19,19,20.40
2018,05,21,19,20,20.30
2018,05,21,19,21,20.20
2018,05,21,19,22,20.10
2018,05,21,19,23,20.10
2018,05,21,19,24,20.00
2018,05,21,19,25,20.00
2018,05,21,19,26,19.90
2018,05,21,19,27,19.90
2018,05,21,19,28,19.90
2018,05,21,19,29,20.00
2018,05,21,19,30,20.00
2018,05,21,19,31,20.00
2018,05,21,19,32,20.10
2018,05,21,19,33,20.10
2018,05,21,19,34,20.10
2018,05,21,19,35,20.10
2018,05,21,19,36,20.00
2018,05,21,19,37,20.00
2018,05,21,19,38,20.00
2018,05,21,19,39,20.00
2018,05,21,19,40,20.00
2018,05,21,19,41,20.00
2018,05,21,19,42,19.90
2018,05,21,19,43,19.90
2018,05,21,19,44,19.90
2018,05,21,19,45,19.80
2018,05,21,19,46,19.80
2018,05,21,19,47,19.70
2018,05,21,19,48,19.70
2018,05,21,19,49,19.60
2018,05,21,19,50,19.50
2018,05,21,19,51,19.50
2018,05,21,19,52,19.40
2018,05,21,19,53,19.30
2018,05,21,19,54,19.30
2018,05,21,19,55,19.20
2018,05,21,19,56,19.20
2018,05,21,19,57,19.10
2018,05,21,19,58,19.00
2018,05,21,19,59,19.00
2018,05,21,20,00,18.90
2018,05,21,20,01,18.90
2018,05,21,20,02,18.80
2018,05,21,20,03,18.80
2018,05,21,20,04,18.80
2018,05,21,20,05,18.70
2018,05,21,20,06,18.70
2018,05,21,20,07,18.70
2018,05,21,20,08,18.60
2018,05,21,20,09,18.60
2018,05,21,20,10,18.60
2018,05,21,20,11,18.50
2018,05,21,20,12,18.50
2018,05,21,20,13,18.40
2018,05,21,20,14,18.40
2018,05,21,20,15,18.40
2018,05,21,20,16,18.30
2018,05,21,20,17,18.30
2018,05,21,20,18,18.30
2018,05,21,20,19,18.30
2018,05,21,20,20,18.20
2018,05,21,20,21,18.20
2018,05,21,20,22,18.20
2018,05,21,20,23,18.20
2018,05,21,20,24,18.10
2018,05,21,20,25,18.10
2018,05,21,20,26,18.10
2018,05,21,20,27,18.10
2018,05,21,20,28,18.00
2018,05,21,20,29,18.00
2018,05,21,20,30,17.90
2018,05,21,20,31,17.90
2018,05,21,20,32,17.90
2018,05,21,20,33,17.90
2018,05,21,20,34,17.80
2018,05,21,20,35,17.80
2018,05,21,20,36,17.80
2018,05,21,20,37,17.80
2018,05,21,20,38,17.80
2018,05,21,20,39,17.70
2018,05,21,20,40,17.70
2018,05,21,20,41,17.70
2018,05,21,20,42,17.70
2018,05,21,20,43,17.60
2018,05,21,20,44,17.60
2018,05,21,20,45,17.60
2018,05,21,20,46,17.50
2018,05,21,20,47,17.50
2018,05,21,20,48,17.50
2018,05,21,20,49,17.40
2018,05,21,20,50,17.40
2018,05,21,20,51,17.40
2018,05,21,20,52,17.30
2018,05,21,20,53,17.30
2018,05,21,20,54,17.30
2018,05,21,20,55,17.30
2018,05,21,20,56,17.30
2018,05,21,20,57,17.20
2018,05,21,20,58,17.20
2018,05,21,20,59,17.10
2018,05,21,21,00,17.10
2018,05,21,21,01,17.10
2018,05,21,21,02,17.10
2018,05,21,21,03,17.00
2018,05,21,21,04,16.90
2018,05,21,21,05,16.90
2018,05,21,21,06,16.90
2018,05,21,21,07,16.90
2018,05,21,21,08,16.90
2018,05,21,21,09,16.90
2018,05,21,21,10,16.80
2018,05,21,21,11,16.80
2018,05,21,21,12,16.80
2018,05,21,21,13,16.80
2018,05,21,21,14,16.80
2018,05,21,21,15,16.80
2018,05,21,21,16,16.70
2018,05,21,21,17,16.70
2018,05,21,21,18,16.70
2018,05,21,21,19,16.70
2018,05,21,21,20,16.70
2018,05,21,21,21,16.60
2018,05,21,21,22,16.60
2018,05,21,21,23,16.60
2018,05,21,21,24,16.50
2018,05,21,21,25,16.50
2018,05,21,21,26,16.50
2018,05,21,21,27,16.40
2018,05,21,21,28,16.40
2018,05,21,21,29,16.40
2018,05,21,21,30,16.30
2018,05,21,21,31,16.30
2018,05,21,21,32,16.30
2018,05,21,21,33,16.20
2018,05,21,21,34,16.20
2018,05,21,21,35,16.20
2018,05,21,21,36,16.20
2018,05,21,21,37,16.10
2018,05,21,21,38,16.10
2018,05,21,21,39,16.10
2018,05,21,21,40,16.00
2018,05,21,21,41,16.00
2018,05,21,21,42,15.90
2018,05,21,21,43,15.90
2018,05,21,21,44,15.90
2018,05,21,21,45,15.80
2018,05,21,21,46,15.80
2018,05,21,21,47,15.80
2018,05,21,21,48,15.80
2018,05,21,21,49,15.70
2018,05,21,21,50,15.70
2018,05,21,21,51,15.70
2018,05,21,21,52,15.70
2018,05,21,21,53,15.60
2018,05,21,21,54,15.60
2018,05,21,21,55,15.60
2018,05,21,21,56,15.50
2018,05,21,21,57,15.50
2018,05,21,21,58,15.50
2018,05,21,21,59,15.40
2018,05,21,22,00,15.40
2018,05,21,22,01,15.40
2018,05,21,22,02,15.40
2018,05,21,22,03,15.30
2018,05,21,22,04,15.30
2018,05,21,22,05,15.30
2018,05,21,22,06,15.30
2018,05,21,22,07,15.30
2018,05,21,22,08,15.30
2018,05,21,22,09,15.20
2018,05,21,22,10,15.20
2018,05,21,22,11,15.20
2018,05,21,22,12,15.20
2018,05,21,22,13,15.10
2018,05,21,22,14,15.10
2018,05,21,22,15,15.10
2018,05,21,22,16,15.10
2018,05,21,22,17,15.10
2018,05,21,22,18,15.10
2018,05,21,22,19,15.10
2018,05,21,22,20,15.10
2018,05,21,22,21,15.00
2018,05,21,22,22,15.00
2018,05,21,22,23,15.00
2018,05,21,22,24,14.90
2018,05,21,22,25,14.90
2018,05,21,22,26,14.90
2018,05,21,22,27,14.80
2018,05,21,22,28,14.80
2018,05,21,22,29,14.80
2018,05,21,22,30,14.80
2018,05,21,22,31,14.70
2018,05,21,22,32,14.70
2018,05,21,22,33,14.70
2018,05,21,22,34,14.70
2018,05,21,22,35,14.60
2018,05,21,22,36,14.60
2018,05,21,22,37,14.60
2018,05,21,22,38,14.50
2018,05,21,22,39,14.50
2018,05,21,22,40,14.50